Location: Newark
(42.1667°N, 14.5667°E)
Time: 19:09:10
(UTC+00:00)

Envisat - Pass Details

Date: 29 January 2020
Orbit: 764 x 766 km, 98.1° (Epoch: 19 February)

Event Time Altitude Azimuth Distance (km) Brightness Sun altitude
Rises 16:38:07 0° 160° (SSE) 3,218 6.2 -5.4°
Reaches altitude 10° 16:40:25 10° 159° (SSE) 2,296 5.5 -5.8°
Maximum altitude 16:45:28 75° 75° (ENE) 797 3.0 -6.7°
Drops below altitude 10° 16:50:33 10° 351° (N) 2,312 5.4 -7.6°
Sets 16:52:52 0° 349° (N) 3,242 6.2 -8.0°
